• In Czech Republic
  • List of Countries
  • For 7 days
  • Water Temperature
  • Satellite Maps
  • Weather Map
  • Weather Widgets
  • user-avatar
    Login

    Hourly Weather Makarov

    Today, 17 January, Wednesday

    Time Temperature Precipitation Wind Pressure Humidity
    00:00 -10°C° 0 mm 6 mps 742 mmHg 80%
    01:00 -10°C° 0 mm 6 mps 741 mmHg 82%
    02:00 -9°C° 0 mm 6 mps 740 mmHg 84%
    03:00 -9°C° 0.1 mm 6 mps 739 mmHg 85%
    04:00 -8°C° 0.1 mm 6 mps 738 mmHg 86%
    05:00 -8°C° 0.1 mm 6 mps 737 mmHg 87%
    06:00 -6°C° 0.4 mm 6 mps 737 mmHg 89%
    07:00 -6°C° 0.4 mm 6 mps 736 mmHg 90%
    08:00 -5°C° 0.4 mm 6 mps 735 mmHg 92%
    09:00 -5°C° 0.4 mm 6 mps 735 mmHg 90%
    10:00 -5°C° 0.4 mm 6 mps 735 mmHg 89%
    11:00 -5°C° 0.4 mm 6 mps 734 mmHg 87%
    12:00 -4°C° 0 mm 5 mps 734 mmHg 85%
    13:00 -4°C° 0 mm 5 mps 734 mmHg 84%
    14:00 -3°C° 0 mm 4 mps 733 mmHg 82%
    15:00 -4°C° 0 mm 4 mps 734 mmHg 85%
    16:00 -4°C° 0 mm 3 mps 734 mmHg 88%
    17:00 -5°C° 0 mm 3 mps 734 mmHg 90%
    18:00 -4°C° 0 mm 2 mps 734 mmHg 91%
    19:00 -4°C° 0 mm 2 mps 734 mmHg 93%
    20:00 -4°C° 0 mm 2 mps 733 mmHg 94%
    21:00 -2°C° 0.1 mm 1 mps 733 mmHg 94%
    22:00 -2°C° 0.1 mm 1 mps 733 mmHg 94%
    23:00 -2°C° 0.1 mm 1 mps 733 mmHg 94%

    Tomorrow, 18 January, Thursday

    Time Temperature Precipitation Wind Pressure Humidity
    00:00 -4°C° 0.1 mm 2 mps 733 mmHg 94%
    01:00 -4°C° 0.1 mm 2 mps 732 mmHg 94%
    02:00 -3°C° 0.1 mm 2 mps 732 mmHg 94%
    03:00 -4°C° 0.3 mm 3 mps 732 mmHg 94%
    04:00 -4°C° 0.3 mm 4 mps 732 mmHg 93%
    05:00 -5°C° 0.3 mm 5 mps 731 mmHg 93%
    06:00 -5°C° 0.5 mm 5 mps 732 mmHg 92%
    07:00 -5°C° 0.5 mm 5 mps 732 mmHg 91%
    08:00 -5°C° 0.5 mm 6 mps 732 mmHg 90%
    09:00 -5°C° 0.3 mm 6 mps 733 mmHg 88%
    10:00 -5°C° 0.3 mm 6 mps 733 mmHg 86%
    11:00 -4°C° 0.3 mm 6 mps 733 mmHg 84%
    12:00 -4°C° 0.3 mm 6 mps 734 mmHg 84%
    13:00 -4°C° 0.3 mm 6 mps 734 mmHg 84%
    14:00 -4°C° 0.3 mm 6 mps 734 mmHg 84%
    15:00 -4°C° 0.3 mm 6 mps 735 mmHg 85%
    16:00 -5°C° 0.3 mm 6 mps 735 mmHg 86%
    17:00 -5°C° 0.3 mm 6 mps 735 mmHg 87%
    18:00 -5°C° 0.1 mm 6 mps 736 mmHg 88%
    19:00 -5°C° 0.1 mm 6 mps 736 mmHg 89%
    20:00 -6°C° 0.1 mm 5 mps 736 mmHg 90%
    21:00 -6°C° 0 mm 5 mps 737 mmHg 90%
    22:00 -5°C° 0 mm 4 mps 737 mmHg 91%
    23:00 -5°C° 0 mm 4 mps 737 mmHg 91%

    Day after tomorrow, 19 January, Friday

    Time Temperature Precipitation Wind Pressure Humidity
    00:00 -5°C° 0 mm 3 mps 737 mmHg 93%
    01:00 -6°C° 0 mm 3 mps 737 mmHg 94%
    02:00 -5°C° 0 mm 2 mps 737 mmHg 95%
    03:00 -5°C° 0 mm 2 mps 736 mmHg 95%
    04:00 -6°C° 0 mm 2 mps 736 mmHg 95%
    05:00 -4°C° 0 mm 1 mps 736 mmHg 95%
    06:00 -6°C° 0 mm 2 mps 735 mmHg 94%
    07:00 -6°C° 0 mm 2 mps 735 mmHg 93%
    08:00 -7°C° 0 mm 3 mps 735 mmHg 92%
    09:00 -6°C° 0.4 mm 3 mps 735 mmHg 92%
    10:00 -5°C° 0.4 mm 4 mps 735 mmHg 91%
    11:00 -6°C° 0.4 mm 5 mps 734 mmHg 91%
    12:00 -4°C° 0.4 mm 4 mps 734 mmHg 90%
    13:00 -3°C° 0.4 mm 4 mps 734 mmHg 90%
    14:00 -1°C° 0.4 mm 3 mps 734 mmHg 89%
    15:00 -2°C° 0 mm 4 mps 734 mmHg 89%
    16:00 -2°C° 0 mm 4 mps 734 mmHg 89%
    17:00 -2°C° 0 mm 4 mps 734 mmHg 88%
    18:00 -2°C° 0.1 mm 4 mps 734 mmHg 87%
    19:00 -2°C° 0.1 mm 4 mps 735 mmHg 86%
    20:00 -2°C° 0.1 mm 5 mps 735 mmHg 85%
    21:00 -4°C° 0 mm 5 mps 735 mmHg 85%
    22:00 -4°C° 0 mm 5 mps 736 mmHg 85%
    23:00 -5°C° 0 mm 5 mps 736 mmHg 85%

    20 January, Saturday

    Time Temperature Precipitation Wind Pressure Humidity
    00:00 -5°C° 0 mm 6 mps 737 mmHg 83%
    01:00 -5°C° 0 mm 6 mps 737 mmHg 82%
    02:00 -4°C° 0 mm 7 mps 738 mmHg 81%
    03:00 -5°C° 0 mm 6 mps 738 mmHg 81%
    04:00 -5°C° 0 mm 6 mps 739 mmHg 81%
    05:00 -6°C° 0 mm 6 mps 739 mmHg 81%
    06:00 -6°C° 0 mm 5 mps 740 mmHg 82%
    07:00 -7°C° 0 mm 5 mps 740 mmHg 83%
    08:00 -7°C° 0 mm 4 mps 741 mmHg 84%
    09:00 -5°C° 0 mm 4 mps 742 mmHg 83%
    10:00 -5°C° 0 mm 4 mps 742 mmHg 82%
    11:00 -4°C° 0 mm 4 mps 743 mmHg 82%
    12:00 -4°C° 0 mm 4 mps 743 mmHg 82%
    13:00 -4°C° 0 mm 4 mps 743 mmHg 81%
    14:00 -4°C° 0 mm 3 mps 743 mmHg 81%
    15:00 -4°C° 0 mm 3 mps 743 mmHg 83%
    16:00 -4°C° 0 mm 2 mps 743 mmHg 84%
    17:00 -4°C° 0 mm 2 mps 744 mmHg 85%
    18:00 -3°C° 0 mm 1 mps 744 mmHg 86%
    19:00 -3°C° 0 mm 1 mps 744 mmHg 88%
    20:00 -4°C° 0 mm 1 mps 744 mmHg 89%
    21:00 -4°C° 0 mm 1 mps 744 mmHg 89%
    22:00 -4°C° 0 mm 1 mps 744 mmHg 89%
    23:00 -5°C° 0 mm 0 mps 744 mmHg 90%

    21 January, Sunday

    Time Temperature Precipitation Wind Pressure Humidity
    00:00 -4°C° 0 mm 1 mps 743 mmHg 90%
    01:00 -4°C° 0 mm 1 mps 743 mmHg 91%
    02:00 -4°C° 0 mm 1 mps 743 mmHg 91%
    03:00 -4°C° 0 mm 1 mps 743 mmHg 92%
    04:00 -7°C° 0 mm 2 mps 743 mmHg 92%
    05:00 -7°C° 0 mm 2 mps 743 mmHg 93%
    06:00 -7°C° 0 mm 2 mps 743 mmHg 93%
    07:00 -7°C° 0 mm 2 mps 743 mmHg 94%
    08:00 -8°C° 0 mm 2 mps 743 mmHg 94%
    09:00 -8°C° 0 mm 3 mps 743 mmHg 92%
    10:00 -7°C° 0 mm 3 mps 743 mmHg 90%
    11:00 -7°C° 0 mm 3 mps 743 mmHg 88%
    12:00 -6°C° 0 mm 3 mps 743 mmHg 86%
    13:00 -7°C° 0 mm 4 mps 744 mmHg 84%
    14:00 -5°C° 0 mm 4 mps 744 mmHg 82%
    15:00 -6°C° 0 mm 3 mps 744 mmHg 84%
    16:00 -7°C° 0 mm 3 mps 745 mmHg 86%
    17:00 -7°C° 0 mm 3 mps 745 mmHg 88%
    18:00 -8°C° 0 mm 3 mps 746 mmHg 89%
    19:00 -8°C° 0 mm 3 mps 746 mmHg 90%
    20:00 -7°C° 0 mm 2 mps 747 mmHg 91%
    21:00 -8°C° 0 mm 2 mps 747 mmHg 92%
    22:00 -8°C° 0 mm 2 mps 747 mmHg 93%
    23:00 -8°C° 0 mm 2 mps 748 mmHg 94%

    22 January, Monday

    Time Temperature Precipitation Wind Pressure Humidity
    00:00 -8°C° 0 mm 2 mps 748 mmHg 94%
    01:00 -8°C° 0 mm 2 mps 748 mmHg 94%
    02:00 -8°C° 0 mm 2 mps 749 mmHg 95%
    03:00 -8°C° 0 mm 2 mps 749 mmHg 95%
    04:00 -8°C° 0 mm 2 mps 749 mmHg 95%
    05:00 -8°C° 0 mm 2 mps 749 mmHg 96%
    06:00 -8°C° 0 mm 2 mps 750 mmHg 96%
    07:00 -8°C° 0 mm 2 mps 750 mmHg 96%
    08:00 -8°C° 0 mm 2 mps 750 mmHg 96%
    09:00 -7°C° 0 mm 2 mps 751 mmHg 95%
    10:00 -6°C° 0 mm 2 mps 751 mmHg 93%
    11:00 -6°C° 0 mm 2 mps 751 mmHg 91%
    12:00 -5°C° 0 mm 2 mps 751 mmHg 90%
    13:00 -5°C° 0 mm 2 mps 752 mmHg 88%
    14:00 -5°C° 0 mm 2 mps 752 mmHg 86%
    15:00 -5°C° 0 mm 2 mps 752 mmHg 88%
    16:00 -4°C° 0 mm 1 mps 752 mmHg 89%
    17:00 -6°C° 0 mm 1 mps 752 mmHg 90%
    18:00 -6°C° 0 mm 1 mps 753 mmHg 91%
    19:00 -7°C° 0 mm 1 mps 753 mmHg 91%
    20:00 -7°C° 0 mm 1 mps 753 mmHg 92%
    21:00 -7°C° 0 mm 1 mps 754 mmHg 92%
    22:00 -8°C° 0 mm 1 mps 754 mmHg 93%
    23:00 -8°C° 0 mm 1 mps 754 mmHg 93%
    Show more